Volver al catálogo

THORAD AGENA D DEB

ActivoLEO
NORAD 4177·DEBRIS·🇺🇸 United States

Lanzado Sep 30, 1969 desde Vandenberg Space Force Base

Loading…

Próximos Pases (próximas 24 horas)

TLE

ActualizadoSource: Space-Track

Época: Sep 14, 2026, 15:28 UTC

1 04177U 69082AV  26257.64456930  .00000728  00000-0  57336-3 0  9997
2 04177  70.0747  29.5200 0114656 242.0048 116.9418 13.92572088868644

Sigue THORAD AGENA D DEB en tiempo real con AllMySat

Download on the App Store